COSMOS 2434 (721)

Last updated on Oct. 21, 2020, 5:58 a.m. UTC

1 32393U 07065A   20294.68520684  .00000027  00000-0  00000-0 0  9993
2 32393  64.5335 262.1231 0000764 142.6889  87.4292  2.13103043 99782
UTC
Height (km)
Latitude
Longitude
Inclination
Orbital Period
UTC large
Height (km)
Speed (km/s)
/
Latitude / Longitude
Inclination (degrees)
Orbital Period (minutes)
Azimuth
Elevation
Range (km)
Doppler Factor
iOS Compass Heading
iOS Angle

Next 30 passes for location: Hong Kong

Rise time Rise Azimuth (degrees) Set time Set Azimuth (degrees) Duration Max altitude (degrees)

No matching passes for this satellites